Flag for U.S.A. Weather past 2 weeks in Pensacola, Florida, U.S.A.

Now
78 °F

Clear.


Feels Like: 81 °F
Forecast: 74 / 85 °F
Wind: 7 mph from Southwest

Location: Pensacola Regional Airport

Current Time: Jul 25, 2014 at 2:01:51 AM

Latest Report: Jul 25, 2014 at 12:53 AM


Visibility: 10 mi

Pressure: 30.00 "Hg

Humidity: 87%

Dew point: 74 °F

Location of PensacolaLocation

Historic Weather in Pensacola — Graph

°F

Pensacola temperature yesterday

Maximum temperature yesterday: 85 °F (at 1:53 PM)
Minimum temperature yesterday: 73 °F (at 4:53 AM)
Average temperature yesterday: 79 °F

Past Weeks' High & Low Weather Summary

 TemperatureHumidityPressure
High89 °F (Jul 14, 1:53 PM)100% (Jul 18, 6:53 PM)30.15 "Hg (Jul 18, 6:53 PM)
Low66 °F (Jul 17, 5:53 AM)39% (Jul 16, 4:53 PM)29.88 "Hg (Jul 16, 2:53 AM)
Average79 °F81%30.02 "Hg
* Reported Jul 10 12:53 AM — Jul 25 12:53 AM, Pensacola, Weather by CustomWeather, © 2014

Note: Actual official high and low records may vary slightly from our data, if they occured in-between our weather recording intervals... More about our weather records

Advertising

Pensacola weather history for previous 24 hours

 ConditionsComfort  
Time TempWeatherWind HumidityBarometerVisibility
12:53 AM
Jul 25
78 °FClear.7 mph87%30.00 "Hg10 mi
11:53 PM
Jul 24
78 °FClear.6 mph84%30.00 "Hg10 mi
10:53 PM78 °FClear.7 mph84%30.00 "Hg10 mi
9:53 PM78 °FClear.6 mph84%29.99 "Hg10 mi
8:53 PM79 °FClear.6 mph79%29.98 "Hg10 mi
7:53 PM80 °FClear.6 mph71%29.97 "Hg10 mi
6:53 PM82 °FSunny.9 mph67%29.95 "Hg10 mi
6:03 PM84 °FPassing clouds.12 mph67%29.94 "Hg10 mi
5:53 PM84 °FSunny.10 mph67%29.94 "Hg10 mi
4:53 PM84 °FScattered clouds.14 mph72%29.96 "Hg10 mi
3:53 PM85 °FSunny.12 mph70%29.96 "Hg10 mi
2:53 PM85 °FSunny.14 mph68%29.98 "Hg10 mi
1:53 PM85 °FScattered clouds.12 mph65%29.99 "Hg10 mi
12:53 PM83 °FSunny.8 mph72%30.01 "Hg10 mi
11:53 AM80 °FPassing clouds.5 mph79%30.02 "Hg10 mi
10:53 AM83 °FLight rain. Partly sunny.7 mph72%30.03 "Hg10 mi
9:53 AM81 °FScattered clouds.3 mph69%30.03 "Hg10 mi
8:53 AM80 °FSunny.3 mph76%30.03 "Hg10 mi
7:53 AM78 °FSunny.3 mph84%30.03 "Hg10 mi
6:53 AM75 °FSunny.5 mph94%30.01 "Hg10 mi
5:53 AM73 °FClear.No wind94%29.99 "Hg10 mi
4:53 AM73 °FClear.3 mph94%29.98 "Hg10 mi
3:53 AM74 °FClear.5 mph94%29.97 "Hg10 mi
2:53 AM74 °FClear.No wind94%29.98 "Hg10 mi
Weather by CustomWeather, © 2014

See weather overviewHow to use our weather pages